Time,TemperatureF,DewpointF,PressureIn,WindDirection,WindDirectionDegrees,WindSpeedMPH,WindSpeedGustMPH,Humidity,HourlyPrecipIn,Conditions,Clouds,dailyrainin,SoftwareType,DateUTC
2013-02-25 00:01:00,54.0,-1.0,30.23,NE,34,25.0,36.0,10,0.00,,,0.01,,2013-02-25 08:01:00,
2013-02-25 00:31:00,52.0,1.0,30.27,SE,139,7.0,18.0,12,0.00,,,0.00,,2013-02-25 08:31:00,
2013-02-25 00:41:00,52.0,1.0,30.27,SE,139,7.0,18.0,12,0.00,,,0.00,,2013-02-25 08:41:00,
2013-02-25 00:52:00,52.0,1.0,30.27,SE,139,7.0,18.0,12,0.00,,,0.00,,2013-02-25 08:52:00,
2013-02-25 01:01:00,52.0,1.0,30.27,SE,139,7.0,18.0,12,0.00,,,0.00,,2013-02-25 09:01:00,
2013-02-25 04:32:00,52.0,3.0,30.24,NE,56,13.0,19.0,13,0.00,,,0.00,,2013-02-25 12:32:00,
2013-02-25 04:42:00,52.0,3.0,30.24,NE,56,13.0,19.0,13,0.00,,,0.00,,2013-02-25 12:42:00,
2013-02-25 04:55:00,53.0,4.0,30.24,NE,48,7.0,17.0,13,0.00,,,0.00,,2013-02-25 12:55:00,
2013-02-25 05:01:00,53.0,4.0,30.25,NNE,30,8.0,14.0,13,0.00,,,0.00,,2013-02-25 13:01:00,
2013-02-25 05:21:00,52.0,3.0,30.25,NE,52,14.0,20.0,13,0.00,,,0.00,,2013-02-25 13:21:00,
2013-02-25 05:31:00,52.0,3.0,30.25,NE,47,12.0,18.0,13,0.00,,,0.00,,2013-02-25 13:31:00,
2013-02-25 05:41:00,52.0,3.0,30.25,NE,47,12.0,18.0,13,0.00,,,0.00,,2013-02-25 13:41:00,
2013-02-25 05:51:00,52.0,4.0,30.25,NE,46,11.0,19.0,14,0.00,,,0.00,,2013-02-25 13:51:00,
2013-02-25 06:02:00,53.0,4.0,30.25,NE,51,4.0,15.0,13,0.00,,,0.00,,2013-02-25 14:02:00,
2013-02-25 06:21:00,52.0,4.0,30.25,NW,319,1.0,8.0,14,0.00,,,0.00,,2013-02-25 14:21:00,
2013-02-25 06:31:00,51.0,4.0,30.25,West,267,0.0,1.0,14,0.00,,,0.00,,2013-02-25 14:31:00,
2013-02-25 06:41:00,51.0,4.0,30.25,West,267,0.0,1.0,14,0.00,,,0.00,,2013-02-25 14:41:00,
2013-02-25 06:52:00,51.0,5.0,30.25,West,269,0.0,1.0,15,0.00,,,0.00,,2013-02-25 14:52:00,
2013-02-25 07:02:00,52.0,4.0,30.25,West,269,0.0,0.0,14,0.00,,,0.00,,2013-02-25 15:02:00,
2013-02-25 07:21:00,52.0,4.0,30.26,SW,217,0.0,0.0,14,0.00,,,0.00,,2013-02-25 15:21:00,
2013-02-25 07:32:00,52.0,6.0,30.26,East,91,3.0,5.0,15,0.00,,,0.00,,2013-02-25 15:32:00,
2013-02-25 07:41:00,52.0,6.0,30.26,East,91,3.0,5.0,15,0.00,,,0.00,,2013-02-25 15:41:00,
2013-02-25 07:52:00,53.0,7.0,30.26,East,86,2.0,5.0,15,0.00,,,0.00,,2013-02-25 15:52:00,
2013-02-25 08:01:00,54.0,7.0,30.27,East,101,1.0,3.0,15,0.00,,,0.00,,2013-02-25 16:01:00,
2013-02-25 08:21:00,56.0,12.0,30.27,East,101,0.0,3.0,17,0.00,,,0.00,,2013-02-25 16:21:00,
2013-02-25 08:31:00,56.0,12.0,30.27,East,101,0.0,2.0,17,0.00,,,0.00,,2013-02-25 16:31:00,
2013-02-25 08:41:00,56.0,12.0,30.27,East,101,0.0,2.0,17,0.00,,,0.00,,2013-02-25 16:41:00,
2013-02-25 08:52:00,55.0,11.0,30.27,East,101,0.0,1.0,17,0.00,,,0.00,,2013-02-25 16:52:00,
2013-02-25 09:01:00,57.0,11.0,30.27,SE,146,0.0,3.0,16,0.00,,,0.00,,2013-02-25 17:01:00,
2013-02-25 09:21:00,55.0,12.0,30.26,SSE,147,1.0,2.0,18,0.00,,,0.00,,2013-02-25 17:21:00,
2013-02-25 09:31:00,55.0,15.0,30.26,SSE,147,0.0,2.0,20,0.00,,,0.00,,2013-02-25 17:31:00,
2013-02-25 09:41:00,55.0,15.0,30.26,SSE,147,0.0,2.0,20,0.00,,,0.00,,2013-02-25 17:41:00,
2013-02-25 09:52:00,58.0,16.0,30.25,SSE,165,6.0,9.0,19,0.00,,,0.00,,2013-02-25 17:52:00,
2013-02-25 10:01:00,58.0,16.0,30.25,NNW,330,1.0,7.0,19,0.00,,,0.00,,2013-02-25 18:01:00,
2013-02-25 10:12:00,58.0,16.0,30.25,NNW,330,1.0,7.0,19,0.00,,,0.00,,2013-02-25 18:12:00,
2013-02-25 10:21:00,57.0,21.0,30.25,SW,221,4.0,7.0,24,0.00,,,0.00,,2013-02-25 18:21:00,
2013-02-25 10:32:00,57.0,21.0,30.24,West,265,0.0,5.0,24,0.00,,,0.00,,2013-02-25 18:32:00,
2013-02-25 10:41:00,57.0,21.0,30.24,West,265,0.0,5.0,24,0.00,,,0.00,,2013-02-25 18:41:00,
2013-02-25 10:52:00,59.0,20.0,30.25,SSW,203,1.0,5.0,22,0.00,,,0.00,,2013-02-25 18:52:00,
2013-02-25 11:01:00,60.0,21.0,30.25,SW,230,3.0,6.0,22,0.00,,,0.00,,2013-02-25 19:01:00,
2013-02-25 11:11:00,60.0,21.0,30.25,SW,230,3.0,6.0,22,0.00,,,0.00,,2013-02-25 19:11:00,
2013-02-25 11:21:00,58.0,22.0,30.24,SSE,163,2.0,12.0,25,0.00,,,0.00,,2013-02-25 19:21:00,
2013-02-25 11:31:00,57.0,20.0,30.24,SW,221,2.0,7.0,23,0.00,,,0.00,,2013-02-25 19:31:00,
2013-02-25 11:41:00,57.0,20.0,30.24,SW,221,2.0,7.0,23,0.00,,,0.00,,2013-02-25 19:41:00,
2013-02-25 11:52:00,57.0,19.0,30.23,WSW,248,4.0,8.0,22,0.00,,,0.00,,2013-02-25 19:52:00,
2013-02-25 12:01:00,57.0,19.0,30.23,WSW,248,4.0,8.0,22,0.00,,,0.00,,2013-02-25 20:01:00,
2013-02-25 12:11:00,57.0,19.0,30.23,WSW,248,4.0,8.0,22,0.00,,,0.00,,2013-02-25 20:11:00,
2013-02-25 12:21:00,59.0,21.0,30.22,SSW,211,4.0,10.0,23,0.00,,,0.00,,2013-02-25 20:21:00,
2013-02-25 12:31:00,58.0,18.0,30.22,West,264,5.0,9.0,21,0.00,,,0.00,,2013-02-25 20:31:00,
2013-02-25 12:42:00,58.0,18.0,30.22,West,264,5.0,9.0,21,0.00,,,0.00,,2013-02-25 20:42:00,
2013-02-25 12:52:00,57.0,15.0,30.21,West,259,7.0,11.0,19,0.00,,,0.00,,2013-02-25 20:52:00,
2013-02-25 13:01:00,57.0,19.0,30.21,WSW,248,7.0,12.0,22,0.00,,,0.00,,2013-02-25 21:01:00,
2013-02-25 13:21:00,58.0,19.0,30.19,West,265,8.0,13.0,22,0.00,,,0.00,,2013-02-25 21:21:00,
2013-02-25 13:31:00,57.0,20.0,30.19,WSW,258,8.0,13.0,23,0.00,,,0.00,,2013-02-25 21:31:00,
2013-02-25 13:41:00,57.0,20.0,30.19,WSW,258,8.0,13.0,23,0.00,,,0.00,,2013-02-25 21:41:00,
2013-02-25 13:52:00,58.0,21.0,30.19,WNW,282,9.0,15.0,24,0.00,,,0.00,,2013-02-25 21:52:00,
2013-02-25 14:01:00,58.0,21.0,30.18,WNW,293,9.0,17.0,24,0.00,,,0.00,,2013-02-25 22:01:00,
2013-02-25 14:11:00,58.0,21.0,30.18,WNW,293,9.0,17.0,24,0.00,,,0.00,,2013-02-25 22:11:00,
2013-02-25 14:21:00,57.0,21.0,30.18,West,278,12.0,16.0,24,0.00,,,0.00,,2013-02-25 22:21:00,
2013-02-25 14:31:00,57.0,22.0,30.18,West,275,8.0,17.0,26,0.00,,,0.00,,2013-02-25 22:31:00,
2013-02-25 14:41:00,57.0,22.0,30.18,West,275,8.0,17.0,26,0.00,,,0.00,,2013-02-25 22:41:00,
2013-02-25 14:52:00,57.0,22.0,30.17,West,273,8.0,16.0,25,0.00,,,0.00,,2013-02-25 22:52:00,
2013-02-25 15:01:00,56.0,22.0,30.17,WNW,298,10.0,17.0,26,0.00,,,0.00,,2013-02-25 23:01:00,
2013-02-25 15:11:00,56.0,22.0,30.17,WNW,298,10.0,17.0,26,0.00,,,0.00,,2013-02-25 23:11:00,
2013-02-25 15:22:00,54.0,23.0,30.17,WNW,287,8.0,16.0,30,0.00,,,0.00,,2013-02-25 23:22:00,
2013-02-25 15:31:00,54.0,20.0,30.17,West,267,7.0,13.0,26,0.00,,,0.00,,2013-02-25 23:31:00,
2013-02-25 15:41:00,54.0,20.0,30.17,West,267,7.0,13.0,26,0.00,,,0.00,,2013-02-25 23:41:00,
2013-02-25 15:52:00,55.0,25.0,30.16,West,277,8.0,12.0,31,0.00,,,0.00,,2013-02-25 23:52:00,
2013-02-25 16:01:00,54.0,26.0,30.15,West,270,10.0,13.0,33,0.00,,,0.00,,2013-02-26 00:01:00,
2013-02-25 16:11:00,54.0,26.0,30.15,West,270,10.0,13.0,33,0.00,,,0.00,,2013-02-26 00:11:00,
2013-02-25 16:21:00,54.0,26.0,30.14,WNW,288,14.0,17.0,34,0.00,,,0.00,,2013-02-26 00:21:00,
2013-02-25 16:32:00,54.0,27.0,30.14,WNW,286,11.0,16.0,35,0.00,,,0.00,,2013-02-26 00:32:00,
2013-02-25 16:41:00,54.0,27.0,30.14,WNW,286,11.0,16.0,35,0.00,,,0.00,,2013-02-26 00:41:00,
2013-02-25 16:52:00,53.0,27.0,30.13,WNW,283,10.0,14.0,36,0.00,,,0.00,,2013-02-26 00:52:00,
2013-02-25 17:01:00,53.0,27.0,30.13,WNW,295,9.0,13.0,37,0.00,,,0.00,,2013-02-26 01:01:00,
2013-02-25 17:11:00,53.0,27.0,30.13,WNW,295,9.0,13.0,37,0.00,,,0.00,,2013-02-26 01:11:00,
2013-02-25 17:21:00,52.0,28.0,30.12,West,267,7.0,11.0,39,0.00,,,0.00,,2013-02-26 01:21:00,
2013-02-25 17:31:00,51.0,28.0,30.11,West,277,6.0,10.0,41,0.00,,,0.00,,2013-02-26 01:31:00,
2013-02-25 17:41:00,51.0,28.0,30.11,West,277,6.0,10.0,41,0.00,,,0.00,,2013-02-26 01:41:00,
2013-02-25 17:52:00,51.0,29.0,30.11,West,276,6.0,9.0,42,0.00,,,0.00,,2013-02-26 01:52:00,
2013-02-25 18:01:00,50.0,29.0,30.11,West,277,6.0,8.0,45,0.00,,,0.00,,2013-02-26 02:01:00,
2013-02-25 18:11:00,50.0,29.0,30.11,West,277,6.0,8.0,45,0.00,,,0.00,,2013-02-26 02:11:00,
2013-02-25 18:21:00,49.0,27.0,30.11,WNW,292,6.0,8.0,42,0.00,,,0.00,,2013-02-26 02:21:00,
2013-02-25 18:31:00,50.0,31.0,30.10,West,263,5.0,13.0,47,0.00,,,0.00,,2013-02-26 02:31:00,
2013-02-25 18:41:00,50.0,31.0,30.10,West,263,5.0,13.0,47,0.00,,,0.00,,2013-02-26 02:41:00,
2013-02-25 18:52:00,49.0,29.0,30.11,West,274,8.0,11.0,46,0.00,,,0.00,,2013-02-26 02:52:00,
2013-02-25 19:01:00,51.0,24.0,30.11,West,276,5.0,11.0,35,0.00,,,0.00,,2013-02-26 03:01:00,
2013-02-25 19:11:00,51.0,24.0,30.11,West,276,5.0,11.0,35,0.00,,,0.00,,2013-02-26 03:11:00,
2013-02-25 19:21:00,51.0,25.0,30.11,WNW,299,4.0,8.0,36,0.00,,,0.00,,2013-02-26 03:21:00,
2013-02-25 19:31:00,51.0,24.0,30.12,West,270,7.0,9.0,35,0.00,,,0.00,,2013-02-26 03:31:00,
2013-02-25 19:41:00,51.0,24.0,30.12,West,270,7.0,9.0,35,0.00,,,0.00,,2013-02-26 03:41:00,
2013-02-25 19:52:00,51.0,24.0,30.12,West,279,8.0,11.0,34,0.00,,,0.00,,2013-02-26 03:52:00,
2013-02-25 20:01:00,51.0,24.0,30.12,WSW,250,1.0,6.0,35,0.00,,,0.00,,2013-02-26 04:01:00,
2013-02-25 20:21:00,52.0,24.0,30.12,SE,129,3.0,5.0,33,0.00,,,0.00,,2013-02-26 04:21:00,
2013-02-25 20:31:00,52.0,20.0,30.12,East,101,2.0,5.0,28,0.00,,,0.00,,2013-02-26 04:31:00,
2013-02-25 20:42:00,52.0,20.0,30.12,East,101,2.0,5.0,28,0.00,,,0.00,,2013-02-26 04:42:00,
2013-02-25 20:52:00,53.0,19.0,30.12,NE,54,3.0,6.0,26,0.00,,,0.00,,2013-02-26 04:52:00,
2013-02-25 21:01:00,53.0,21.0,30.12,NE,54,0.0,0.0,28,0.00,,,0.00,,2013-02-26 05:01:00,
2013-02-25 21:11:00,53.0,21.0,30.12,NE,54,0.0,0.0,28,0.00,,,0.00,,2013-02-26 05:11:00,
2013-02-25 21:21:00,52.0,21.0,30.12,NE,54,2.0,3.0,29,0.00,,,0.00,,2013-02-26 05:21:00,
2013-02-25 21:31:00,53.0,21.0,30.12,East,88,3.0,6.0,28,0.00,,,0.00,,2013-02-26 05:31:00,
2013-02-25 21:42:00,53.0,21.0,30.12,East,88,3.0,6.0,28,0.00,,,0.00,,2013-02-26 05:42:00,
2013-02-25 21:52:00,52.0,22.0,30.13,East,100,5.0,7.0,30,0.00,,,0.00,,2013-02-26 05:52:00,
2013-02-25 22:01:00,51.0,23.0,30.14,SE,126,3.0,7.0,33,0.00,,,0.00,,2013-02-26 06:01:00,
2013-02-25 22:11:00,51.0,23.0,30.14,SE,126,3.0,7.0,33,0.00,,,0.00,,2013-02-26 06:11:00,
2013-02-25 22:21:00,51.0,21.0,30.13,East,88,6.0,7.0,31,0.00,,,0.00,,2013-02-26 06:21:00,
2013-02-25 22:31:00,51.0,21.0,30.13,East,98,5.0,8.0,31,0.00,,,0.00,,2013-02-26 06:31:00,
2013-02-25 22:41:00,51.0,21.0,30.13,East,98,5.0,8.0,31,0.00,,,0.00,,2013-02-26 06:41:00,
2013-02-25 22:52:00,51.0,21.0,30.13,ENE,76,5.0,8.0,30,0.00,,,0.00,,2013-02-26 06:52:00,
2013-02-25 23:01:00,53.0,19.0,30.13,ENE,76,5.0,7.0,26,0.00,,,0.00,,2013-02-26 07:01:00,
2013-02-25 23:21:00,53.0,17.0,30.13,East,94,6.0,10.0,24,0.00,,,0.00,,2013-02-26 07:21:00,
2013-02-25 23:31:00,53.0,16.0,30.12,East,79,6.0,8.0,23,0.00,,,0.00,,2013-02-26 07:31:00,
2013-02-25 23:41:00,53.0,16.0,30.12,East,79,6.0,8.0,23,0.00,,,0.00,,2013-02-26 07:41:00,
2013-02-25 23:52:00,53.0,16.0,30.12,East,82,6.0,9.0,23,0.00,,,0.00,,2013-02-26 07:52:00,